カタログに戻る

STARLINK-30588

運用中通信VLEO
NORAD 58062·PAYLOAD·🇺🇸 United States

打ち上げ Oct 13, 2023 から Cape Canaveral Space Force Station

Loading…

次のパス (今後24時間)

TLE

最新Source: CelesTrak SupGP

元期: Sep 15, 2026, 01:33 UTC

1 58062C 23158M   26258.06506944 -.00025709  00000+0 -93128-3 0  2585
2 58062  43.0013  37.5249 0001640 273.2454  57.0742 15.27587954    11

AllMySatでSTARLINK-30588をリアルタイム追跡

Download on the App Store